START_TIME,STEP,MOV.,AL01,t_acc.,AL02,t_acc.,E37,t_acc.,H21,t_acc.
1981-08-30 21:01:15.600 ,0,0,,0,,0,,0,,0
1981-08-30 21:01:22.800 ,0,0,0.,24.0,0.,24.0,0.,24.0,0.,24.0
1981-08-30 21:01:46.800 ,5,1,0.,24.0,0.,24.0,0.,24.0,0.,24.0
1981-08-30 21:02:10.800 ,5,0,0.,24.0,0.,24.0,1.,24.0,0.,24.0
1981-08-30 21:02:34.800 ,4,1,0.,24.0,0.,24.0,1.,24.0,0.,24.0
1981-08-30 21:02:58.800 ,4,0,0.,24.0,0.,24.0,0.,24.0,0.,24.0
1981-08-30 21:03:22.800 ,3,1,0.,24.0,0.,24.0,0.,24.0,0.,24.0
1981-08-30 21:03:46.800 ,3,0,0.,24.0,0.,24.0,0.,24.0,0.,24.0
1981-08-30 21:04:10.800 ,2,1,0.,24.0,0.,24.0,1.,24.0,0.,24.0
1981-08-30 21:04:34.800 ,2,0,0.,24.0,0.,24.0,0.,24.0,0.,24.0
1981-08-30 21:04:58.800 ,1,1,0.,24.0,0.,24.0,2.,24.0,0.,24.0
1981-08-30 21:05:22.800 ,1,0,0.,24.0,0.,24.0,0.,24.0,0.,24.0
1981-08-30 21:05:46.800 ,0,1,0.,24.0,0.,24.0,0.,24.0,0.,24.0
1981-08-30 21:06:10.800 ,0,0,0.,24.0,0.,24.0,0.,24.0,0.,24.0
1981-08-30 21:06:34.800 ,0,1,1.,24.0,0.,24.0,0.,24.0,0.,24.0
1981-08-30 21:06:58.800 ,0,0,0.,24.0,0.,24.0,0.,24.0,0.,24.0
1981-08-30 21:07:22.800 ,1,1,0.,24.0,0.,24.0,0.,24.0,0.,24.0
1981-08-30 21:07:46.800 ,1,0,0.,24.0,0.,24.0,0.,24.0,0.,24.0
1981-08-30 21:08:10.800 ,2,1,0.,24.0,0.,24.0,0.,24.0,0.,24.0
1981-08-30 21:08:34.800 ,2,0,0.,24.0,0.,24.0,0.,24.0,0.,24.0
1981-08-30 21:08:58.800 ,3,1,0.,24.0,0.,24.0,1.,24.0,0.,24.0
1981-08-30 21:09:22.800 ,4,1,0.,24.0,0.,24.0,0.,24.0,0.,24.0
1981-08-30 21:09:46.800 ,5,1,0.,24.0,0.,24.0,0.,24.0,0.,24.0
1981-08-30 21:10:10.800 ,6,1,0.,24.0,0.,24.0,0.,24.0,0.,24.0
1981-08-30 21:10:34.800 ,7,1,9.,24.0,0.,24.0,0.,24.0,0.,24.0
1981-08-30 21:10:58.800 ,7,1,23.,24.0,0.,24.0,0.,24.0,0.,24.0
1981-08-30 21:11:22.800 ,6,1,25.,24.0,0.,24.0,0.,24.0,0.,24.0
1981-08-30 21:11:46.800 ,5,1,0.,24.0,0.,24.0,0.,24.0,0.,24.0
1981-08-30 21:12:10.800 ,4,1,0.,24.0,0.,24.0,1.,24.0,0.,24.0
1981-08-30 21:12:34.800 ,3,1,0.,24.0,0.,24.0,1.,24.0,0.,24.0
1981-08-30 21:12:58.800 ,2,1,0.,24.0,0.,24.0,0.,24.0,0.,24.0
1981-08-30 21:13:22.800 ,1,1,0.,24.0,0.,24.0,0.,24.0,0.,24.0
1981-08-30 21:13:46.800 ,0,1,0.,24.0,0.,24.0,1.,24.0,0.,24.0
1981-08-30 21:14:10.800 ,0,1,0.,24.0,0.,24.0,0.,24.0,0.,24.0
1981-08-30 21:14:34.800 ,1,1,0.,24.0,0.,24.0,0.,24.0,0.,24.0
1981-08-30 21:14:58.800 ,2,1,0.,24.0,0.,24.0,0.,24.0,0.,24.0
1981-08-30 21:15:22.800 ,3,1,0.,24.0,0.,24.0,0.,24.0,0.,24.0
1981-08-30 21:15:46.800 ,3,0,0.,24.0,0.,24.0,0.,24.0,0.,24.0
1981-08-30 21:16:10.800 ,4,1,0.,24.0,0.,24.0,0.,24.0,0.,24.0
1981-08-30 21:16:34.800 ,4,0,0.,24.0,0.,24.0,0.,24.0,0.,24.0
1981-08-30 21:16:58.800 ,5,1,0.,24.0,0.,24.0,0.,24.0,0.,24.0
1981-08-30 21:17:22.800 ,5,0,0.,24.0,0.,24.0,0.,24.0,0.,24.0
1981-08-30 21:17:46.800 ,6,1,0.,24.0,0.,24.0,1.,24.0,0.,24.0
1981-08-30 21:18:10.800 ,6,0,0.,24.0,0.,24.0,0.,24.0,0.,24.0
1981-08-30 21:18:34.800 ,7,1,6.,24.0,0.,24.0,0.,24.0,0.,24.0
1981-08-30 21:18:58.800 ,7,0,31.,24.0,0.,24.0,0.,24.0,0.,24.0
1981-08-30 21:19:22.800 ,7,1,27.,24.0,0.,24.0,0.,24.0,0.,24.0
1981-08-30 21:19:46.800 ,7,0,32.,24.0,0.,24.0,0.,24.0,0.,24.0
1981-08-30 21:20:10.800 ,6,1,38.,24.0,0.,24.0,0.,24.0,0.,24.0
1981-08-30 21:20:34.800 ,6,0,0.,24.0,0.,24.0,1.,24.0,0.,24.0
1981-08-30 21:20:58.800 ,5,1,0.,24.0,0.,24.0,0.,24.0,0.,24.0
1981-08-30 21:21:22.800 ,5,0,0.,24.0,0.,24.0,0.,24.0,0.,24.0
1981-08-30 21:21:46.800 ,4,1,0.,24.0,0.,24.0,0.,24.0,0.,24.0
1981-08-30 21:22:10.800 ,4,0,0.,24.0,0.,24.0,0.,24.0,0.,24.0
1981-08-30 21:22:34.800 ,3,1,0.,24.0,0.,24.0,0.,24.0,0.,24.0
1981-08-30 21:22:58.800 ,3,0,0.,24.0,1.,24.0,0.,24.0,0.,24.0
1981-08-30 21:23:22.800 ,2,1,0.,24.0,0.,24.0,0.,24.0,0.,24.0
1981-08-30 21:23:46.800 ,2,0,0.,24.0,0.,24.0,0.,24.0,0.,24.0
1981-08-30 21:24:10.800 ,1,1,0.,24.0,0.,24.0,0.,24.0,0.,24.0
1981-08-30 21:24:34.800 ,1,0,0.,24.0,0.,24.0,0.,24.0,0.,24.0
1981-08-30 21:24:58.800 ,0,1,0.,24.0,0.,24.0,0.,24.0,0.,24.0
1981-08-30 21:25:22.800 ,0,0,1.,24.0,0.,24.0,0.,24.0,0.,24.0
1981-08-30 21:25:46.800 ,0,1,0.,24.0,0.,24.0,0.,24.0,0.,24.0
1981-08-30 21:26:10.800 ,0,0,0.,24.0,0.,24.0,1.,24.0,0.,24.0
1981-08-30 21:26:34.800 ,1,1,0.,24.0,0.,24.0,0.,24.0,0.,24.0
1981-08-30 21:26:58.800 ,1,0,0.,24.0,0.,24.0,0.,24.0,0.,24.0
1981-08-30 21:27:22.800 ,2,1,0.,24.0,0.,24.0,1.,24.0,0.,24.0
1981-08-30 21:27:46.800 ,2,0,0.,24.0,0.,24.0,0.,24.0,0.,24.0
1981-08-30 21:28:10.800 ,3,1,0.,24.0,0.,24.0,1.,24.0,0.,24.0
1981-08-30 21:28:34.800 ,4,1,0.,24.0,0.,24.0,0.,24.0,0.,24.0
1981-08-30 21:28:58.800 ,5,1,0.,24.0,1.,24.0,0.,24.0,0.,24.0
1981-08-30 21:29:22.800 ,6,1,0.,24.0,0.,24.0,0.,24.0,0.,24.0
1981-08-30 21:29:46.800 ,7,1,5.,24.0,1.,24.0,0.,24.0,0.,24.0
1981-08-30 21:30:10.800 ,7,1,32.,24.0,0.,24.0,1.,24.0,0.,24.0
1981-08-30 21:30:34.800 ,6,1,34.,24.0,0.,24.0,0.,24.0,0.,24.0
1981-08-30 21:30:58.800 ,5,1,0.,24.0,0.,24.0,0.,24.0,0.,24.0
1981-08-30 21:31:22.800 ,4,1,0.,24.0,0.,24.0,0.,24.0,0.,24.0
1981-08-30 21:31:46.800 ,3,1,0.,24.0,0.,24.0,1.,24.0,0.,24.0
1981-08-30 21:32:10.800 ,2,1,0.,24.0,0.,24.0,1.,24.0,0.,24.0
1981-08-30 21:32:34.800 ,1,1,0.,24.0,0.,24.0,1.,24.0,0.,24.0
1981-08-30 21:32:58.800 ,0,1,0.,24.0,0.,24.0,1.,24.0,0.,24.0
1981-08-30 21:33:22.800 ,0,1,0.,24.0,0.,24.0,1.,24.0,0.,24.0
1981-08-30 21:33:46.800 ,1,1,0.,24.0,0.,24.0,0.,24.0,0.,24.0
1981-08-30 21:34:10.800 ,2,1,0.,24.0,0.,24.0,0.,24.0,0.,24.0
1981-08-30 21:34:34.800 ,3,1,0.,24.0,0.,24.0,0.,24.0,0.,24.0
1981-08-30 21:34:58.800 ,3,0,0.,24.0,0.,24.0,0.,24.0,0.,24.0
1981-08-30 21:35:22.800 ,4,1,0.,24.0,0.,24.0,1.,24.0,0.,24.0
1981-08-30 21:35:46.800 ,4,0,0.,24.0,0.,24.0,1.,24.0,0.,24.0
1981-08-30 21:36:10.800 ,5,1,0.,24.0,0.,24.0,0.,24.0,0.,24.0
1981-08-30 21:36:34.800 ,5,0,0.,24.0,0.,24.0,0.,24.0,0.,24.0
1981-08-30 21:36:58.800 ,6,1,0.,24.0,0.,24.0,0.,24.0,0.,24.0
1981-08-30 21:37:22.800 ,6,0,0.,24.0,0.,24.0,0.,24.0,0.,24.0
1981-08-30 21:37:46.800 ,7,1,5.,24.0,0.,24.0,0.,24.0,0.,24.0
1981-08-30 21:38:10.800 ,7,0,33.,24.0,0.,24.0,0.,24.0,0.,24.0
1981-08-30 21:38:34.800 ,7,1,40.,24.0,0.,24.0,0.,24.0,0.,24.0
1981-08-30 21:38:58.800 ,7,0,38.,24.0,0.,24.0,1.,24.0,0.,24.0
1981-08-30 21:39:22.800 ,6,1,32.,24.0,0.,24.0,0.,24.0,0.,24.0
1981-08-30 21:39:46.800 ,6,0,0.,24.0,0.,24.0,0.,24.0,0.,24.0
1981-08-30 21:40:10.800 ,5,1,0.,24.0,0.,24.0,0.,24.0,0.,24.0
1981-08-30 21:40:34.800 ,5,0,0.,24.0,0.,24.0,0.,24.0,0.,24.0
1981-08-30 21:40:58.800 ,4,1,0.,24.0,0.,24.0,1.,24.0,0.,24.0
1981-08-30 21:41:22.800 ,4,0,0.,24.0,1.,24.0,0.,24.0,0.,24.0
1981-08-30 21:41:46.800 ,3,1,0.,24.0,0.,24.0,0.,24.0,0.,24.0
1981-08-30 21:42:10.800 ,3,0,0.,24.0,0.,24.0,1.,24.0,0.,24.0
1981-08-30 21:42:34.800 ,0,0,0.,24.0,0.,24.0,0.,24.0,0.,24.0
1981-08-30 21:42:58.800 ,0,0,0.,24.0,0.,24.0,1.,24.0,0.,24.0
1981-08-30 21:43:22.800 ,1,1,0.,24.0,0.,24.0,2.,24.0,0.,24.0
1981-08-30 21:43:46.800 ,1,0,0.,24.0,0.,24.0,0.,24.0,0.,24.0
1981-08-30 21:44:10.800 ,0,1,0.,24.0,0.,24.0,0.,24.0,0.,24.0
1981-08-30 21:44:34.800 ,0,0,0.,24.0,0.,24.0,0.,24.0,0.,24.0
1981-08-30 21:44:58.800 ,0,1,0.,24.0,0.,24.0,0.,24.0,0.,24.0
1981-08-30 21:45:22.800 ,0,0,0.,24.0,0.,24.0,0.,24.0,0.,24.0
1981-08-30 21:45:46.800 ,1,1,0.,24.0,0.,24.0,0.,24.0,0.,24.0
1981-08-30 21:46:10.800 ,1,0,0.,24.0,0.,24.0,0.,24.0,0.,24.0
1981-08-30 21:46:34.800 ,2,1,0.,24.0,0.,24.0,0.,24.0,0.,24.0
1981-08-30 21:46:58.800 ,2,0,0.,24.0,0.,24.0,0.,24.0,0.,24.0
1981-08-30 21:47:22.800 ,3,1,0.,24.0,0.,24.0,0.,24.0,0.,24.0
1981-08-30 21:47:46.800 ,4,1,0.,24.0,0.,24.0,0.,24.0,0.,24.0
1981-08-30 21:48:10.800 ,5,1,0.,24.0,0.,24.0,0.,24.0,0.,24.0
1981-08-30 21:48:34.800 ,6,1,0.,24.0,0.,24.0,0.,24.0,0.,24.0
1981-08-30 21:48:58.800 ,7,1,6.,24.0,2.,24.0,0.,24.0,0.,24.0
1981-08-30 21:49:22.800 ,7,1,41.,24.0,1.,24.0,1.,24.0,0.,24.0
1981-08-30 21:49:46.800 ,6,1,22.,24.0,0.,24.0,0.,24.0,0.,24.0
1981-08-30 21:50:10.800 ,5,1,0.,24.0,0.,24.0,0.,24.0,0.,24.0
1981-08-30 21:50:34.800 ,4,1,0.,24.0,0.,24.0,0.,24.0,0.,24.0
1981-08-30 21:50:58.800 ,3,1,0.,24.0,0.,24.0,0.,24.0,0.,24.0
1981-08-30 21:51:22.800 ,2,1,0.,24.0,0.,24.0,0.,24.0,0.,24.0
1981-08-30 21:51:46.800 ,1,1,0.,24.0,0.,24.0,0.,24.0,0.,24.0
1981-08-30 21:52:10.800 ,0,1,0.,24.0,0.,24.0,1.,24.0,0.,24.0
1981-08-30 21:52:34.800 ,0,1,0.,24.0,0.,24.0,1.,24.0,0.,24.0
1981-08-30 21:52:58.800 ,1,1,0.,24.0,0.,24.0,0.,24.0,0.,24.0
1981-08-30 21:53:22.800 ,2,1,0.,24.0,1.,24.0,0.,24.0,0.,24.0
1981-08-30 21:53:46.800 ,3,1,0.,24.0,0.,24.0,0.,24.0,0.,24.0
1981-08-30 21:54:10.800 ,3,0,0.,24.0,0.,24.0,0.,24.0,0.,24.0
1981-08-30 21:54:34.800 ,4,1,0.,24.0,0.,24.0,0.,24.0,0.,24.0
1981-08-30 21:54:58.800 ,4,0,0.,24.0,0.,24.0,1.,24.0,0.,24.0
1981-08-30 21:55:22.800 ,5,1,0.,24.0,0.,24.0,0.,24.0,0.,24.0
1981-08-30 21:55:46.800 ,5,0,0.,24.0,0.,24.0,0.,24.0,0.,24.0
1981-08-30 21:56:10.800 ,6,1,0.,24.0,0.,24.0,0.,24.0,0.,24.0
1981-08-30 21:56:34.800 ,6,0,0.,24.0,0.,24.0,1.,24.0,0.,24.0
1981-08-30 21:56:58.800 ,7,1,5.,24.0,0.,24.0,1.,24.0,0.,24.0
1981-08-30 21:57:22.800 ,7,0,38.,24.0,0.,24.0,1.,24.0,0.,24.0
1981-08-30 21:57:46.800 ,7,1,26.,24.0,0.,24.0,0.,24.0,0.,24.0
1981-08-30 21:58:10.800 ,7,0,31.,24.0,0.,24.0,0.,24.0,0.,24.0
1981-08-30 21:58:34.800 ,6,1,21.,24.0,0.,24.0,0.,24.0,0.,24.0
1981-08-30 21:58:58.800 ,6,0,0.,24.0,0.,24.0,0.,24.0,0.,24.0
1981-08-30 21:59:22.800 ,5,1,0.,24.0,0.,24.0,0.,24.0,0.,24.0
1981-08-30 21:59:46.800 ,5,0,0.,24.0,1.,24.0,0.,24.0,0.,24.0
1981-08-30 22:00:10.800 ,4,1,0.,24.0,0.,24.0,1.,24.0,0.,24.0
1981-08-30 22:00:34.800 ,4,0,0.,24.0,0.,24.0,1.,24.0,0.,24.0
1981-08-30 22:00:58.800 ,3,1,0.,24.0,0.,24.0,0.,24.0,0.,24.0
1981-08-30 22:01:22.800 ,3,0,0.,24.0,0.,24.0,0.,24.0,0.,24.0
1981-08-30 22:01:46.800 ,2,1,0.,24.0,0.,24.0,0.,24.0,0.,24.0
1981-08-30 22:02:10.800 ,2,0,0.,24.0,0.,24.0,0.,24.0,0.,24.0
1981-08-30 22:02:34.800 ,1,1,0.,24.0,0.,24.0,0.,24.0,0.,24.0
1981-08-30 22:02:58.800 ,1,0,0.,24.0,0.,24.0,1.,24.0,0.,24.0
1981-08-30 22:03:22.800 ,0,1,0.,24.0,0.,24.0,0.,24.0,0.,24.0
1981-08-30 22:03:46.800 ,0,0,0.,24.0,0.,24.0,0.,24.0,0.,24.0
1981-08-30 22:04:10.800 ,0,1,0.,24.0,0.,24.0,0.,24.0,0.,24.0
1981-08-30 22:04:34.800 ,0,0,0.,24.0,0.,24.0,0.,24.0,0.,24.0
1981-08-30 22:04:58.800 ,1,1,0.,24.0,1.,24.0,1.,24.0,0.,24.0
1981-08-30 22:05:22.800 ,1,0,0.,24.0,0.,24.0,0.,24.0,0.,24.0
1981-08-30 22:05:46.800 ,2,1,0.,24.0,1.,24.0,0.,24.0,0.,24.0
1981-08-30 22:06:10.800 ,2,0,0.,24.0,0.,24.0,0.,24.0,0.,24.0
1981-08-30 22:06:34.800 ,3,1,0.,24.0,0.,24.0,0.,24.0,0.,24.0
1981-08-30 22:06:58.800 ,4,1,0.,24.0,0.,24.0,0.,24.0,0.,24.0
1981-08-30 22:07:22.800 ,5,1,0.,24.0,0.,24.0,0.,24.0,0.,24.0
1981-08-30 22:07:46.800 ,6,1,0.,24.0,0.,24.0,1.,24.0,0.,24.0
1981-08-30 22:08:10.800 ,7,1,6.,24.0,0.,24.0,2.,24.0,0.,24.0
1981-08-30 22:08:34.800 ,7,1,31.,24.0,0.,24.0,0.,24.0,0.,24.0
1981-08-30 22:08:58.800 ,6,1,26.,24.0,0.,24.0,0.,24.0,0.,24.0
1981-08-30 22:09:22.800 ,5,1,0.,24.0,1.,24.0,0.,24.0,0.,24.0
1981-08-30 22:09:46.800 ,4,1,0.,24.0,0.,24.0,1.,24.0,0.,24.0
1981-08-30 22:10:10.800 ,3,1,0.,24.0,0.,24.0,1.,24.0,0.,24.0
1981-08-30 22:10:34.800 ,2,1,0.,24.0,0.,24.0,0.,24.0,0.,24.0
1981-08-30 22:10:58.800 ,1,1,0.,24.0,0.,24.0,0.,24.0,0.,24.0
1981-08-30 22:11:22.800 ,0,1,0.,24.0,0.,24.0,0.,24.0,0.,24.0
1981-08-30 22:11:46.800 ,0,1,0.,24.0,0.,24.0,0.,24.0,0.,24.0
1981-08-30 22:12:10.800 ,1,1,0.,24.0,0.,24.0,0.,24.0,0.,24.0
1981-08-30 22:12:34.800 ,2,1,0.,24.0,0.,24.0,0.,24.0,0.,24.0
1981-08-30 22:12:58.800 ,3,1,0.,24.0,0.,24.0,1.,24.0,0.,24.0
1981-08-30 22:13:22.800 ,3,0,1.,24.0,0.,24.0,0.,24.0,0.,24.0
1981-08-30 22:13:46.800 ,4,1,0.,24.0,0.,24.0,0.,24.0,0.,24.0
1981-08-30 22:14:10.800 ,4,0,0.,24.0,0.,24.0,0.,24.0,0.,24.0
1981-08-30 22:14:34.800 ,5,1,0.,24.0,0.,24.0,0.,24.0,0.,24.0
1981-08-30 22:14:58.800 ,5,0,0.,24.0,0.,24.0,0.,24.0,0.,24.0
1981-08-30 22:15:22.800 ,6,1,0.,24.0,0.,24.0,0.,24.0,0.,24.0
1981-08-30 22:15:46.800 ,6,0,0.,24.0,0.,24.0,0.,24.0,0.,24.0
1981-08-30 22:16:10.800 ,7,1,4.,24.0,0.,24.0,0.,24.0,0.,24.0
1981-08-30 22:16:34.800 ,7,0,31.,24.0,0.,24.0,0.,24.0,0.,24.0
1981-08-30 22:16:58.800 ,7,1,31.,24.0,0.,24.0,0.,24.0,0.,24.0
1981-08-30 22:17:22.800 ,7,0,34.,24.0,0.,24.0,0.,24.0,0.,24.0
1981-08-30 22:17:46.800 ,6,1,26.,24.0,1.,24.0,0.,24.0,0.,24.0
1981-08-30 22:18:10.800 ,6,0,0.,24.0,0.,24.0,0.,24.0,0.,24.0
1981-08-30 22:18:34.800 ,5,1,0.,24.0,0.,24.0,1.,24.0,0.,24.0
1981-08-30 22:18:58.800 ,5,0,0.,24.0,0.,24.0,0.,24.0,0.,24.0
1981-08-30 22:19:22.800 ,4,1,0.,24.0,0.,24.0,0.,24.0,0.,24.0
1981-08-30 22:19:46.800 ,4,0,0.,24.0,1.,24.0,0.,24.0,0.,24.0
1981-08-30 22:20:10.800 ,3,1,0.,24.0,0.,24.0,0.,24.0,0.,24.0
1981-08-30 22:20:34.800 ,3,0,0.,24.0,0.,24.0,0.,24.0,0.,24.0
1981-08-30 22:20:58.800 ,2,1,0.,24.0,0.,24.0,1.,24.0,0.,24.0
1981-08-30 22:21:22.800 ,2,0,0.,24.0,0.,24.0,0.,24.0,0.,24.0
1981-08-30 22:21:46.800 ,1,1,1.,24.0,0.,24.0,0.,24.0,0.,24.0
1981-08-30 22:22:10.800 ,1,0,1.,24.0,0.,24.0,0.,24.0,0.,24.0
1981-08-30 22:24:10.800 ,0,0,0.,24.0,0.,24.0,0.,24.0,0.,24.0
1981-08-30 22:24:34.800 ,0,0,0.,24.0,0.,24.0,0.,24.0,0.,24.0
1981-08-30 22:24:58.800 ,0,0,1.,24.0,0.,24.0,0.,24.0,0.,24.0
1981-08-30 22:25:22.800 ,0,0,0.,24.0,0.,24.0,0.,24.0,0.,24.0
1981-08-30 22:25:22.800 ,0,0,0.,24.0,0.,24.0,0.,24.0,0.,24.0
1981-08-30 22:25:46.800 ,3,1,0.,24.0,1.,24.0,1.,24.0,0.,24.0
1981-08-30 22:26:10.800 ,4,1,0.,24.0,0.,24.0,0.,24.0,0.,24.0
1981-08-30 22:26:34.800 ,5,1,0.,24.0,0.,24.0,2.,24.0,0.,24.0
1981-08-30 22:26:58.800 ,6,1,0.,24.0,0.,24.0,0.,24.0,0.,24.0
1981-08-30 22:27:22.800 ,7,1,9.,24.0,0.,24.0,1.,24.0,0.,24.0
1981-08-30 22:27:46.800 ,7,1,29.,24.0,0.,24.0,0.,24.0,0.,24.0
1981-08-30 22:28:10.800 ,6,1,17.,24.0,0.,24.0,1.,24.0,0.,24.0
1981-08-30 22:28:34.800 ,5,1,0.,24.0,0.,24.0,0.,24.0,0.,24.0
1981-08-30 22:28:58.800 ,4,1,0.,24.0,0.,24.0,1.,24.0,0.,24.0
1981-08-30 22:29:22.800 ,3,1,0.,24.0,0.,24.0,1.,24.0,0.,24.0
1981-08-30 22:29:46.800 ,2,1,0.,24.0,0.,24.0,1.,24.0,0.,24.0
1981-08-30 22:30:10.800 ,1,1,0.,24.0,0.,24.0,0.,24.0,0.,24.0
1981-08-30 22:30:34.800 ,0,1,0.,24.0,0.,24.0,0.,24.0,0.,24.0
1981-08-30 22:30:58.800 ,0,1,0.,24.0,0.,24.0,1.,24.0,0.,24.0
1981-08-30 22:31:22.800 ,1,1,0.,24.0,0.,24.0,0.,24.0,0.,24.0
1981-08-30 22:31:46.800 ,2,1,0.,24.0,0.,24.0,0.,24.0,0.,24.0
1981-08-30 22:32:10.800 ,3,1,0.,24.0,0.,24.0,0.,24.0,0.,24.0
1981-08-30 22:32:34.800 ,3,0,0.,24.0,0.,24.0,1.,24.0,0.,24.0
1981-08-30 22:32:58.800 ,4,1,0.,24.0,0.,24.0,0.,24.0,0.,24.0
1981-08-30 22:33:22.800 ,4,0,0.,24.0,0.,24.0,0.,24.0,0.,24.0
1981-08-30 22:33:46.800 ,0,0,0.,24.0,0.,24.0,0.,24.0,0.,24.0
1981-08-30 22:34:10.800 ,0,0,0.,24.0,0.,24.0,0.,24.0,0.,24.0
1981-08-30 22:34:34.800 ,6,1,0.,24.0,0.,24.0,0.,24.0,0.,24.0
1981-08-30 22:34:58.800 ,6,0,0.,24.0,0.,24.0,0.,24.0,0.,24.0
1981-08-30 22:35:22.800 ,7,1,6.,24.0,0.,24.0,0.,24.0,0.,24.0
1981-08-30 22:35:46.800 ,7,0,35.,24.0,0.,24.0,0.,24.0,0.,24.0
1981-08-30 22:36:10.800 ,7,1,20.,24.0,0.,24.0,0.,24.0,0.,24.0
1981-08-30 22:36:34.800 ,7,0,29.,24.0,0.,24.0,0.,24.0,0.,24.0
1981-08-30 22:36:58.800 ,6,1,18.,24.0,0.,24.0,0.,24.0,0.,24.0
1981-08-30 22:37:22.800 ,6,0,0.,24.0,1.,24.0,0.,24.0,0.,24.0
1981-08-30 22:37:46.800 ,5,1,0.,24.0,0.,24.0,0.,24.0,0.,24.0
1981-08-30 22:38:10.800 ,0,0,,0,,0,,0,,0
1981-08-30 22:39:28.200 ,0,0,0.,24.0,0.,24.0,0.,24.0,0.,24.0
1981-08-30 22:39:46.800 ,0,0,0.,24.0,0.,24.0,0.,24.0,0.,24.0
1981-08-30 22:40:10.800 ,2,1,0.,24.0,0.,24.0,0.,24.0,0.,24.0
1981-08-30 22:40:34.800 ,2,0,0.,24.0,0.,24.0,0.,24.0,0.,24.0
1981-08-30 22:40:58.800 ,1,1,0.,24.0,0.,24.0,0.,24.0,0.,24.0
1981-08-30 22:41:22.800 ,1,0,0.,24.0,0.,24.0,0.,24.0,0.,24.0
1981-08-30 22:41:46.800 ,0,1,0.,24.0,0.,24.0,0.,24.0,0.,24.0
1981-08-30 22:42:10.800 ,0,0,0.,24.0,0.,24.0,0.,24.0,0.,24.0
1981-08-30 22:42:34.800 ,0,1,0.,24.0,0.,24.0,0.,24.0,0.,24.0
1981-08-30 22:42:58.800 ,0,0,0.,24.0,0.,24.0,0.,24.0,0.,24.0
1981-08-30 22:43:22.800 ,1,1,0.,24.0,0.,24.0,0.,24.0,0.,24.0
1981-08-30 22:43:46.800 ,1,0,0.,24.0,0.,24.0,0.,24.0,0.,24.0
1981-08-30 22:44:10.800 ,2,1,0.,24.0,0.,24.0,0.,24.0,0.,24.0
1981-08-30 22:44:34.800 ,2,0,0.,24.0,0.,24.0,0.,24.0,0.,24.0
1981-08-30 22:44:58.800 ,3,1,0.,24.0,0.,24.0,0.,24.0,0.,24.0
1981-08-30 22:45:22.800 ,4,1,0.,24.0,0.,24.0,1.,24.0,0.,24.0
1981-08-30 22:45:46.800 ,5,1,0.,24.0,0.,24.0,0.,24.0,0.,24.0
1981-08-30 22:46:10.800 ,6,1,0.,24.0,0.,24.0,1.,24.0,0.,24.0
1981-08-30 22:46:34.800 ,7,1,9.,24.0,0.,24.0,0.,24.0,0.,24.0
1981-08-30 22:46:58.800 ,0,0,37.,24.0,0.,24.0,0.,24.0,0.,24.0
1981-08-30 22:47:36.600 ,0,0,,0,,0,,0,,0
1981-08-30 22:47:46.800 ,5,1,0.,24.0,0.,24.0,0.,24.0,0.,24.0
1981-08-30 22:48:10.800 ,4,1,0.,24.0,0.,24.0,0.,24.0,0.,24.0
1981-08-30 22:48:34.800 ,3,1,0.,24.0,0.,24.0,0.,24.0,0.,24.0
1981-08-30 22:48:58.800 ,2,1,0.,24.0,0.,24.0,1.,24.0,0.,24.0
1981-08-30 22:49:22.800 ,1,1,0.,24.0,0.,24.0,0.,24.0,0.,24.0
1981-08-30 22:49:46.800 ,0,1,0.,24.0,0.,24.0,0.,24.0,0.,24.0
1981-08-30 22:50:10.800 ,0,1,0.,24.0,0.,24.0,0.,24.0,0.,24.0
1981-08-30 22:50:34.800 ,1,1,0.,24.0,0.,24.0,0.,24.0,0.,24.0
1981-08-30 22:50:58.800 ,2,1,0.,24.0,0.,24.0,0.,24.0,0.,24.0
1981-08-30 22:51:22.800 ,3,1,0.,24.0,0.,24.0,0.,24.0,0.,24.0
1981-08-30 22:51:46.800 ,3,0,0.,24.0,0.,24.0,0.,24.0,0.,24.0
1981-08-30 22:52:10.800 ,4,1,0.,24.0,0.,24.0,0.,24.0,0.,24.0
1981-08-30 22:52:34.800 ,4,0,0.,24.0,0.,24.0,0.,24.0,0.,24.0
1981-08-30 22:52:58.800 ,5,1,0.,24.0,0.,24.0,0.,24.0,0.,24.0
1981-08-30 22:53:22.800 ,5,0,1.,24.0,0.,24.0,0.,24.0,0.,24.0
1981-08-30 22:53:46.800 ,6,1,0.,24.0,0.,24.0,0.,24.0,0.,24.0
1981-08-30 22:54:10.800 ,6,0,0.,24.0,0.,24.0,1.,24.0,0.,24.0
1981-08-30 22:54:34.800 ,7,1,7.,24.0,0.,24.0,0.,24.0,0.,24.0
1981-08-30 22:54:58.800 ,7,0,25.,24.0,0.,24.0,0.,24.0,0.,24.0
1981-08-30 22:55:22.800 ,7,1,25.,24.0,0.,24.0,0.,24.0,0.,24.0
1981-08-30 22:55:46.800 ,7,0,25.,24.0,0.,24.0,0.,24.0,0.,24.0
1981-08-30 22:56:10.800 ,6,1,22.,24.0,0.,24.0,0.,24.0,0.,24.0
1981-08-30 22:56:34.800 ,0,0,0.,24.0,0.,24.0,1.,24.0,0.,24.0
1981-08-30 22:57:23.400 ,0,0,1.,24.0,0.,24.0,0.,24.0,0.,24.0
1981-08-30 22:57:46.800 ,4,1,0.,24.0,0.,24.0,1.,24.0,0.,24.0
1981-08-30 22:58:10.800 ,4,0,0.,24.0,0.,24.0,0.,24.0,0.,24.0
1981-08-30 22:58:34.800 ,3,1,0.,24.0,0.,24.0,0.,24.0,0.,24.0
1981-08-30 22:58:58.800 ,3,0,0.,24.0,0.,24.0,0.,24.0,0.,24.0
1981-08-30 22:59:22.800 ,2,1,0.,24.0,0.,24.0,1.,24.0,0.,24.0
1981-08-30 22:59:46.800 ,2,0,0.,24.0,0.,24.0,1.,24.0,0.,24.0
1981-08-30 23:00:10.800 ,1,1,0.,24.0,0.,24.0,0.,24.0,0.,24.0
1981-08-30 23:00:34.800 ,1,0,0.,24.0,0.,24.0,1.,24.0,0.,24.0
1981-08-30 23:00:58.800 ,0,1,0.,24.0,0.,24.0,0.,24.0,0.,24.0
1981-08-30 23:01:22.800 ,0,0,0.,24.0,0.,24.0,0.,24.0,0.,24.0
1981-08-30 23:01:46.800 ,0,1,0.,24.0,0.,24.0,0.,24.0,0.,24.0
1981-08-30 23:02:10.800 ,0,0,0.,24.0,0.,24.0,0.,24.0,0.,24.0
1981-08-30 23:02:34.800 ,1,1,1.,24.0,0.,24.0,0.,24.0,0.,24.0
1981-08-30 23:02:58.800 ,1,0,0.,24.0,0.,24.0,0.,24.0,0.,24.0
1981-08-30 23:03:22.800 ,2,1,0.,24.0,0.,24.0,0.,24.0,0.,24.0
1981-08-30 23:03:46.800 ,2,0,0.,24.0,0.,24.0,1.,24.0,0.,24.0
1981-08-30 23:04:10.800 ,3,1,0.,24.0,0.,24.0,0.,24.0,0.,24.0
1981-08-30 23:04:34.800 ,4,1,0.,24.0,0.,24.0,0.,24.0,0.,24.0
1981-08-30 23:04:58.800 ,5,1,0.,24.0,0.,24.0,0.,24.0,0.,24.0
1981-08-30 23:05:22.800 ,6,1,0.,24.0,0.,24.0,0.,24.0,0.,24.0
1981-08-30 23:05:46.800 ,7,1,3.,24.0,0.,24.0,0.,24.0,0.,24.0
1981-08-30 23:06:10.800 ,7,1,31.,24.0,0.,24.0,0.,24.0,0.,24.0
1981-08-30 23:06:34.800 ,6,1,16.,24.0,0.,24.0,0.,24.0,0.,24.0
1981-08-30 23:06:58.800 ,5,1,0.,24.0,0.,24.0,1.,24.0,0.,24.0
1981-08-30 23:07:22.800 ,4,1,0.,24.0,0.,24.0,3.,24.0,0.,24.0
1981-08-30 23:07:46.800 ,3,1,0.,24.0,0.,24.0,0.,24.0,0.,24.0
1981-08-30 23:08:10.800 ,2,1,0.,24.0,0.,24.0,1.,24.0,0.,24.0
1981-08-30 23:08:34.800 ,1,1,0.,24.0,0.,24.0,0.,24.0,0.,24.0
1981-08-30 23:08:58.800 ,0,1,0.,24.0,0.,24.0,1.,24.0,0.,24.0
1981-08-30 23:09:22.800 ,0,1,0.,24.0,0.,24.0,0.,24.0,0.,24.0
1981-08-30 23:09:46.800 ,1,1,0.,24.0,0.,24.0,0.,24.0,0.,24.0
1981-08-30 23:10:10.800 ,2,1,0.,24.0,0.,24.0,0.,24.0,0.,24.0
1981-08-30 23:10:34.790 ,3,1,0.,24.0,0.,24.0,0.,24.0,0.,24.0
1981-08-30 23:10:58.790 ,3,0,0.,24.0,0.,24.0,1.,24.0,0.,24.0
1981-08-30 23:11:22.790 ,4,1,0.,24.0,0.,24.0,0.,24.0,0.,24.0
1981-08-30 23:11:46.790 ,4,0,0.,24.0,0.,24.0,0.,24.0,0.,24.0
1981-08-30 23:12:10.790 ,5,1,0.,24.0,0.,24.0,0.,24.0,0.,24.0
1981-08-30 23:12:34.790 ,5,0,0.,24.0,0.,24.0,0.,24.0,0.,24.0
1981-08-30 23:12:58.790 ,6,1,0.,24.0,0.,24.0,0.,24.0,0.,24.0
1981-08-30 23:13:22.790 ,6,0,0.,24.0,0.,24.0,0.,24.0,0.,24.0
1981-08-30 23:13:46.790 ,7,1,8.,24.0,0.,24.0,1.,24.0,0.,24.0
1981-08-30 23:14:10.790 ,7,0,28.,24.0,0.,24.0,0.,24.0,0.,24.0
1981-08-30 23:14:34.790 ,7,1,21.,24.0,0.,24.0,0.,24.0,0.,24.0
1981-08-30 23:14:58.790 ,7,0,30.,24.0,0.,24.0,1.,24.0,0.,24.0
1981-08-30 23:15:22.790 ,6,1,23.,24.0,0.,24.0,1.,24.0,0.,24.0
1981-08-30 23:15:46.790 ,6,0,0.,24.0,0.,24.0,0.,24.0,0.,24.0
1981-08-30 23:16:10.790 ,5,1,0.,24.0,0.,24.0,0.,24.0,0.,24.0
1981-08-30 23:16:34.790 ,5,0,0.,24.0,1.,24.0,0.,24.0,0.,24.0
1981-08-30 23:16:58.790 ,4,1,0.,24.0,0.,24.0,0.,24.0,0.,24.0
1981-08-30 23:17:22.800 ,4,0,0.,24.0,0.,24.0,0.,24.0,0.,24.0
1981-08-30 23:17:46.800 ,3,1,0.,24.0,0.,24.0,0.,24.0,0.,24.0
1981-08-30 23:18:10.800 ,3,0,0.,24.0,0.,24.0,1.,24.0,0.,24.0
1981-08-30 23:18:34.800 ,2,1,0.,24.0,0.,24.0,0.,24.0,0.,24.0
1981-08-30 23:18:58.800 ,2,0,0.,24.0,0.,24.0,1.,24.0,0.,24.0
1981-08-30 23:19:22.800 ,1,1,0.,24.0,0.,24.0,1.,24.0,0.,24.0
1981-08-30 23:19:46.800 ,1,0,0.,24.0,0.,24.0,0.,24.0,0.,24.0
1981-08-30 23:20:10.800 ,0,1,1.,24.0,0.,24.0,0.,24.0,0.,24.0
1981-08-30 23:20:34.800 ,0,0,0.,24.0,0.,24.0,2.,24.0,0.,24.0
1981-08-30 23:20:58.800 ,0,1,0.,24.0,0.,24.0,0.,24.0,0.,24.0
1981-08-30 23:21:22.800 ,0,0,0.,24.0,0.,24.0,0.,24.0,0.,24.0
1981-08-30 23:21:46.800 ,1,1,0.,24.0,0.,24.0,1.,24.0,0.,24.0
1981-08-30 23:22:10.800 ,1,0,0.,24.0,0.,24.0,0.,24.0,0.,24.0
1981-08-30 23:22:34.800 ,2,1,0.,24.0,0.,24.0,0.,24.0,0.,24.0
1981-08-30 23:22:58.800 ,2,0,0.,24.0,0.,24.0,1.,24.0,0.,24.0
1981-08-30 23:23:22.800 ,3,1,0.,24.0,0.,24.0,1.,24.0,0.,24.0
1981-08-30 23:23:46.800 ,0,0,0.,24.0,0.,24.0,2.,24.0,0.,24.0
1981-08-30 23:54:16.790 ,0,0,0.,24.0,0.,24.0,0.,24.0,0.,24.0
1981-08-30 23:54:34.790 ,3,0,,0,,0,,0,,0
1981-08-30 23:54:58.790 ,3,0,0.,24.0,0.,24.0,0.,24.0,0.,24.0
1981-08-30 23:55:22.790 ,4,1,0.,24.0,0.,24.0,2.,24.0,0.,24.0
1981-08-30 23:55:46.790 ,4,0,0.,24.0,0.,24.0,0.,24.0,0.,24.0
1981-08-30 23:56:10.790 ,5,1,0.,24.0,0.,24.0,1.,24.0,0.,24.0
1981-08-30 23:56:34.790 ,5,0,0.,24.0,0.,24.0,0.,24.0,0.,24.0
1981-08-30 23:56:58.790 ,6,1,0.,24.0,0.,24.0,1.,24.0,0.,24.0
1981-08-30 23:57:22.790 ,6,0,0.,24.0,0.,24.0,0.,24.0,0.,24.0
1981-08-30 23:57:46.790 ,7,1,5.,24.0,0.,24.0,0.,24.0,0.,24.0
1981-08-30 23:58:10.790 ,7,0,33.,24.0,0.,24.0,0.,24.0,0.,24.0
1981-08-30 23:58:34.790 ,7,1,34.,24.0,0.,24.0,2.,24.0,0.,24.0
1981-08-30 23:58:58.790 ,7,0,40.,24.0,0.,24.0,0.,24.0,0.,24.0
1981-08-30 23:59:22.790 ,6,1,29.,24.0,0.,24.0,0.,24.0,0.,24.0
1981-08-30 23:59:46.790 ,6,0,0.,24.0,0.,24.0,0.,24.0,0.,24.0
1981-08-31 00:00:10.790 ,5,1,0.,24.0,0.,24.0,1.,24.0,0.,24.0
